SCP
0 0 0 0 0 0 0 0 0 0 0 0 0 0 0 1 1 1 0 0 0 0 0 0 0 0 0 0 0 0 0 0 0 0 0 0 0 0 0 0 0 0 0 0
0 0 0 0 0 0 0 0 0 0 0 0 0 0 0 1 1 1 0 0 0 0 0 0 0 0 0 0 0 0 0 0 0 0 0 0 0 0 0 0 0 0 0 0
0 0 0 0 0 0 0 0 0 0 0 0 0 0 0 1 1 1 0 0 0 0 0 0 0 0 0 0 0 0 0 0 0 0 0 0 0 0 0 0 0 0 0 0
0 0 0 0 0 0 0 0 0 0 0 0 0 0 0 0 0 0 0 0 0 0 0 0 0 0 0 0 0 0 0 0 0 0 0 0 0 0 0 0 0 0 0 0
0 0 0 0 0 0 0 0 0 0 0 0 0 0 0 0 0 0 0 0 1 1 1 1 0 0 0 0 0 0 0 0 0 0 0 0 0 0 0 0 0 0 0 0
0 0 0 0 0 0 0 0 0 0 0 0 0 0 0 0 0 0 0 0 1 1 1 1 1 0 0 0 0 0 0 0 0 0 0 0 0 0 0 0 0 0 0 0
0 0 0 0 0 0 0 0 0 0 0 0 0 0 0 0 0 0 0 0 1 1 1 1 1 0 0 0 0 0 0 0 0 0 0 0 0 0 0 0 0 0 0 0
0 0 0 0 0 0 0 0 0 0 0 0 0 0 0 0 0 0 0 0 1 1 1 1 1 0 0 0 0 0 0 0 0 0 0 0 0 0 0 0 0 0 0 0
0 0 0 0 0 0 0 0 0 0 0 0 0 0 0 0 0 0 0 0 0 0 1 1 1 0 0 0 0 0 0 0 0 0 0 0 0 0 0 0 0 0 0 0
0 0 0 0 0 0 0 0 0 0 0 0 0 0 0 0 0 0 0 0 0 0 0 0 0 0 0 0 0 0 0 0 0 0 0 0 0 0 0 0 0 0 0 0
0 0 0 0 0 0 0 0 0 0 0 0 0 0 0 0 0 0 0 0 0 0 0 0 0 0 0 0 0 0 0 0 0 0 0 0 0 0 0 0 0 0 0 0
0 0 0 0 0 0 0 0 0 0 0 0 0 0 0 0 0 0 0 0 0 0 0 0 0 0 0 0 0 0 0 0 0 0 0 0 0 0 0 0 0 0 0 0
0 0 0 0 0 0 0 0 0 0 0 0 0 0 0 0 0 0 0 0 0 0 0 0 0 0 0 0 0 0 0 0 0 0 0 0 0 0 0 0 0 0 0 0
0 0 0 0 0 0 0 0 0 0 0 0 0 0 0 0 0 0 0 0 0 0 0 0 0 0 0 0 0 0 0 0 0 0 0 0 0 0 0 0 0 0 0 0
0 0 0 0 0 0 0 0 0 0 0 0 0 0 0 0 0 0 0 0 0 0 0 0 0 0 0 0 0 0 0 0 0 0 0 0 0 0 0 0 0 0 0 0
0 0 0 0 0 0 0 0 0 0 0 0 0 0 0 0 0 0 0 0 0 0 0 0 0 0 0 0 0 0 0 0 0 0 0 0 0 0 0 0 0 0 0 0
0 0 0 0 0 0 0 0 0 0 0 0 0 0 0 0 0 0 0 0 0 0 0 0 0 0 0 0 0 0 0 0 0 0 0 0 0 0 0 0 0 0 0 0
0 0 0 0 0 0 0 0 0 0 0 0 0 0 0 0 0 0 0 0 0 0 0 0 0 0 0 0 0 0 0 0 0 0 0 0 0 0 0 0 0 0 0 0
0 0 0 0 0 0 0 0 0 0 0 0 0 0 0 0 0 0 0 0 0 0 0 0 0 0 0 0 0 0 0 0 0 0 0 0 0 0 0 0 0 0 0 0
0 0 0 0 0 0 0 0 0 0 0 0 0 0 0 0 0 0 0 0 0 0 0 0 0 0 0 0 0 0 0 0 1 0 0 0 0 0 0 0 0 0 0 0
0 0 0 0 0 0 0 0 0 0 0 0 0 0 0 0 0 0 0 0 1 1 1 1 0 0 0 0 0 0 0 0 1 1 0 0 0 0 0 0 0 0 0 0
0 0 0 0 0 0 0 0 0 0 0 0 0 0 0 0 0 0 0 1 1 1 1 0 0 0 0 0 0 0 0 0 0 0 0 0 0 0 0 0 0 0 0 0
0 0 0 0 0 0 0 0 0 0 0 0 0 0 0 0 0 0 0 1 1 1 1 0 0 0 0 0 0 0 0 0 0 0 0 0 0 0 0 0 0 0 0 0
0 0 0 0 0 0 0 0 0 0 0 0 0 0 0 0 0 0 0 0 1 1 1 0 0 0 0 0 0 0 0 0 0 0 0 0 0 0 0 1 1 1 0 0
0 0 0 0 0 0 0 0 0 0 0 0 0 0 0 0 0 0 0 0 0 0 0 0 0 0 0 0 0 0 0 0 0 0 0 0 0 0 0 1 1 1 1 0
0 0 0 0 0 0 0 0 0 0 0 0 0 0 0 0 0 0 0 0 0 1 1 0 0 0 0 0 0 0 0 0 0 0 0 0 0 0 1 1 1 1 1 0
Wind_Speed
1 3 2 6 6 5 3 3 3 3 3 4 5 5 8 9 8 8 7 7 6 6 6 7 7 7 7 6 6 5 5 4 4 3 3 3 2 2 2 3 4 4 4 4
3 3 8 5 5 3 2 2 2 1 3 4 4 4 6 8 9 11 11 10 8 6 5 7 7 7 7 7 6 5 5 4 4 3 3 2 2 1 1 2 4 4 4 4
5 6 4 4 3 3 1 4 4 3 1 1 3 2 3 4 5 7 10 10 10 11 11 9 8 7 7 7 7 6 5 5 4 4 4 3 3 3 3 3 3 3 4 4
4 5 2 3 3 4 2 3 4 4 4 2 3 2 5 5 6 7 9 9 10 11 10 9 9 8 8 8 7 7 6 5 5 6 6 5 3 2 1 0 1 2 4 4
3 2 3 3 4 4 4 3 3 3 3 0 1 2 6 3 7 10 10 11 11 12 12 11 10 9 8 8 7 7 6 5 5 5 6 6 4 2 1 1 2 3 3 3
4 2 3 4 3 3 4 5 5 4 4 2 5 4 6 6 11 10 10 11 12 12 11 10 9 8 6 6 7 7 7 5 5 6 6 6 5 4 4 2 2 1 2 2
2 2 1 2 2 1 5 6 3 3 2 5 3 4 8 8 9 11 12 12 11 12 11 10 10 9 8 8 8 7 8 5 5 5 5 5 6 5 5 4 3 2 1 1
2 3 4 3 4 4 4 8 7 4 3 4 1 4 7 5 5 7 8 9 10 12 11 12 12 11 10 10 9 8 8 6 5 5 5 4 5 4 3 4 3 3 2 1
5 4 3 2 3 6 4 3 6 5 1 2 3 3 5 2 3 5 7 8 10 12 12 12 11 11 10 10 10 10 9 6 6 5 5 4 4 4 4 4 3 2 2 2
5 3 3 2 2 1 5 6 5 3 2 2 3 3 4 3 3 5 8 10 10 11 11 11 11 11 10 10 9 9 8 7 6 5 5 5 5 5 4 4 4 3 3 3
4 4 1 1 4 5 3 3 4 3 4 4 2 6 6 7 7 7 9 10 11 12 12 11 10 9 9 8 8 8 7 6 5 5 5 5 5 5 4 4 4 4 3 4
4 5 2 5 4 6 5 5 6 4 3 3 2 7 5 6 6 7 8 8 10 11 12 11 10 9 9 9 9 8 8 7 6 6 5 5 5 5 5 4 4 4 4 4
5 6 3 2 4 0 2 4 5 5 4 3 4 6 3 2 4 5 7 8 8 9 10 9 9 10 10 10 9 9 8 8 6 6 6 6 5 6 5 4 4 4 5 4
6 5 6 8 7 5 4 5 5 5 4 4 6 6 4 3 4 4 5 7 9 10 11 11 10 10 10 10 10 9 9 8 8 7 7 7 6 6 6 5 5 4 5 5
5 4 4 5 6 5 6 7 7 6 7 7 6 6 7 6 7 7 7 8 9 10 10 12 11 10 10 9 9 9 9 8 8 8 7 7 6 6 5 5 5 4 5 5
3 4 2 2 3 4 4 7 8 7 6 6 5 6 7 5 4 4 6 8 10 11 12 12 12 12 12 12 12 10 10 9 9 9 8 7 6 6 6 5 5 5 4 4
3 3 3 2 2 1 5 7 8 6 5 6 8 9 4 3 5 7 8 9 10 11 11 12 13 13 13 13 12 12 11 10 10 9 8 8 8 7 6 6 6 6 5 5
6 4 3 2 2 5 8 5 6 6 6 6 5 5 6 7 6 5 6 9 9 10 10 11 11 11 10 11 11 10 9 10 10 9 9 9 8 8 7 6 7 6 5 5
7 7 4 3 4 5 6 4 5 5 5 5 5 5 5 4 2 1 3 6 9 9 9 9 10 9 9 10 10 10 10 10 10 10 10 10 10 9 8 8 7 6 5 5
5 6 5 4 4 6 7 4 2 4 3 4 5 6 5 4 3 5 4 4 5 5 6 6 6 6 7 8 9 11 11 11 12 11 11 10 10 10 10 9 7 5 5 5
4 4 5 5 4 6 7 3 3 4 6 4 4 5 5 6 6 5 3 3 4 5 5 6 7 7 7 8 10 11 11 12 12 10 9 9 10 10 9 7 5 6 5 5
6 5 6 5 4 7 4 2 4 6 3 2 2 3 4 4 3 3 3 3 4 4 4 6 6 6 5 7 10 10 11 10 8 9 9 10 9 9 8 7 6 6 7 6
6 7 6 7 7 5 3 4 3 4 3 2 2 2 4 4 2 2 2 3 3 4 5 5 6 5 4 6 8 9 8 7 9 10 10 9 9 7 8 8 8 6 6 5
2 1 3 1 3 2 1 2 2 2 2 2 3 4 5 4 3 3 3 3 3 3 4 4 6 5 4 4 5 7 7 8 9 10 9 9 9 8 7 6 7 6 6 6
3 2 3 2 3 1 0 1 2 1 1 2 2 3 4 6 4 4 3 4 4 3 3 4 5 5 4 4 4 4 6 8 9 9 8 8 8 8 7 6 5 7 7 8
3 5 5 5 4 3 4 3 2 3 2 3 4 3 2 5 5 5 4 3 4 4 4 4 4 4 3 4 4 3 5 7 8 7 7 6 6 6 6 6 3 2 3 6
Wind_Direction
148 83 211 216 198 194 199 177 181 196 181 151 178 188 193 193 184 183 189 188 186 189 188 168 160 157 147 141 138 139 133 129 116 105 100 90 72 42 37 36 49 55 59 71
49 245 232 218 205 203 189 158 146 124 168 163 190 215 205 199 196 187 186 190 185 183 177 165 158 156 152 152 151 146 142 143 140 134 133 131 124 89 59 29 41 47 59 68
191 236 223 195 191 178 178 173 175 172 161 117 123 308 235 226 209 195 192 188 180 181 178 172 164 160 153 158 163 159 154 147 139 129 109 86 63 43 34 30 26 23 50 66
228 245 198 169 202 172 212 198 159 143 117 240 165 238 262 215 207 206 200 190 186 184 177 175 170 164 163 165 161 154 151 143 139 132 124 126 124 127 164 112 50 31 44 62
242 213 171 187 213 171 189 167 136 144 134 288 231 185 274 194 207 216 204 193 190 185 179 180 177 172 166 158 156 155 147 140 136 135 136 132 130 144 131 81 74 49 34 52
231 235 179 185 196 165 130 73 48 52 81 263 224 181 264 214 208 205 201 195 188 183 181 179 174 161 157 153 150 148 144 143 140 136 136 139 146 144 129 118 103 58 31 36
307 291 232 155 125 62 99 92 49 11 7 257 227 180 246 231 205 195 192 191 186 179 175 172 168 165 162 159 157 152 149 151 151 145 147 153 157 154 154 157 150 130 85 56
169 256 228 175 158 166 158 135 151 182 219 276 275 220 258 253 199 183 180 178 175 175 176 176 175 170 167 164 160 156 157 158 160 157 160 161 157 151 153 162 157 156 154 148
167 240 263 197 156 141 138 154 167 144 212 262 280 284 315 17 127 155 160 161 171 178 177 177 174 171 170 168 167 165 163 163 170 168 160 163 163 153 155 156 149 152 158 143
150 192 240 203 85 100 154 152 105 121 161 256 288 255 237 231 198 178 174 175 180 177 177 175 174 174 175 172 168 165 164 169 174 169 168 166 166 160 157 146 147 150 149 134
137 144 240 136 177 184 142 138 124 142 163 162 246 268 228 199 194 189 189 181 178 178 178 176 175 175 173 166 164 165 169 168 169 169 166 162 162 157 150 151 160 155 145 143
146 124 183 232 240 183 168 174 148 154 214 172 182 269 271 190 188 181 186 182 180 178 176 176 172 169 169 169 171 172 172 172 176 171 163 166 159 151 148 157 162 150 142 144
141 119 110 349 333 299 187 187 164 147 143 167 179 261 296 195 186 183 180 181 176 172 171 171 170 173 177 178 178 178 178 177 176 167 161 162 160 158 163 167 161 151 143 138
122 129 161 188 210 200 222 224 184 147 168 208 214 235 264 238 210 204 190 183 176 174 173 175 178 182 184 183 182 181 183 178 172 167 165 169 173 172 172 167 159 157 151 144
117 157 195 216 220 194 212 225 214 196 190 194 222 218 231 224 214 208 194 182 175 177 180 182 184 186 184 183 186 186 183 179 173 169 173 180 177 169 164 162 161 154 150 152
110 151 157 245 235 204 225 228 221 218 201 204 214 238 236 224 203 200 192 179 177 184 188 189 188 188 188 188 189 186 183 180 172 173 180 177 168 163 165 165 158 150 149 146
146 134 129 230 253 137 243 221 212 214 203 188 212 229 221 205 202 195 190 183 182 188 189 191 191 192 192 191 186 186 184 175 174 176 176 173 170 168 170 163 152 155 157 146
151 138 144 172 131 223 241 227 198 203 221 208 206 211 198 201 204 202 190 186 189 188 189 190 191 192 191 188 186 182 174 172 175 176 176 174 171 171 167 162 164 166 156 153
158 149 150 157 188 257 277 245 190 189 236 225 200 210 206 194 130 305 225 191 189 189 186 187 187 186 181 181 178 170 171 174 176 181 182 179 175 171 169 172 174 168 157 158
144 137 144 157 177 223 242 256 212 129 245 259 191 191 188 153 150 245 241 193 189 186 180 178 172 166 172 178 170 168 174 177 186 188 185 179 175 174 178 181 174 160 159 166
142 140 166 176 201 247 250 254 103 148 232 258 193 180 171 174 194 213 204 180 182 181 177 166 159 165 178 171 165 173 177 189 193 183 176 174 177 179 178 171 161 153 155 152
167 167 180 167 192 240 251 137 170 206 214 195 175 166 156 164 167 159 154 160 159 153 152 153 156 168 169 162 165 175 188 193 178 167 170 174 176 176 169 161 160 156 155 157
182 184 180 185 208 231 207 184 198 156 153 177 150 155 137 127 130 136 142 142 146 147 149 150 151 152 153 162 169 180 191 175 165 165 172 174 173 172 167 168 166 159 162 166
254 125 136 202 245 224 168 128 133 151 163 182 149 135 124 128 135 128 122 117 119 130 141 144 140 142 153 166 170 181 177 165 163 168 172 171 169 168 169 171 170 169 173 176
214 155 137 196 240 45 15 157 163 149 103 102 106 119 133 130 128 127 120 124 125 121 121 128 138 146 159 161 157 161 161 159 162 167 169 168 167 166 167 168 174 180 188 187
207 175 164 207 216 176 224 228 177 148 151 149 125 93 96 127 134 124 121 124 124 118 116 119 124 132 141 142 141 145 151 155 156 159 163 162 160 160 159 155 144 136 157 179